[[[{"header":{"parameterUnit":"kt","parameterCategory":2,"dx":1,"dy":1,"la1":30.253999710083008,"la2":30.299108505249023,"lo1":-89.0895004272461,"lo2":-89.04439544677734,"nx":28,"ny":28,"refTime":"2022-10-17T21:00:00:Z","depth":"0","parameterNumber":2,"parameterNumberName":"U-component_of_CURRENTS"},"data":[-0.2341,-0.2331,-0.2359,-0.233,-0.2363,-0.2339,-0.2356,-0.2384,-0.2411,-0.24,-0.2393,-0.2558,-0.2649,-0.2598,-0.2424,-0.2418,-0.2172,-0.2216,-0.2118,-0.2305,-0.2323,-0.234,-0.2277,-0.2154,-0.2153,-0.1703,-0.1698,-0.1694,-0.2398,-0.2399,-0.2455,-0.2489,-0.2526,-0.2618,-0.2734,-0.2723,-0.2763,-0.2862,-0.2941,-0.3017,-0.3095,-0.3159,-0.3127,-0.2972,-0.2953,-0.2827,-0.2601,-0.2551,-0.2995,-0.2962,-0.2983,-0.2983,-0.2983,-0.2984,-0.2984,-0.2984,-0.246,-0.2469,-0.2488,-0.2558,-0.2647,-0.2735,-0.2768,-0.2896,-0.2989,-0.3026,-0.3216,-0.3245,-0.3372,-0.3501,-0.3527,-0.3408,-0.3338,-0.3184,-0.3027,-0.2961,-0.2858,-0.3372,-0.3483,-0.3483,-0.3484,-0.3484,-0.3485,0,-0.2515,-0.2526,-0.2535,-0.2621,-0.2695,-0.28,-0.2912,-0.2972,-0.3098,-0.3173,-0.3274,-0.3347,-0.351,-0.3508,-0.3572,-0.3553,-0.317,-0.3375,-0.3189,-0.2848,-0.2752,-0.2683,-0.3139,-0.3214,-0.3213,-0.3212,-0.3211,-0.3211,-0.2574,-0.2576,-0.2647,-0.2676,-0.27,-0.2795,-0.2884,-0.3005,-0.3066,-0.3197,-0.3224,-0.3317,-0.3367,-0.3438,-0.344,-0.3448,-0.3218,-0.3349,-0.3243,-0.3078,-0.2928,-0.2839,-0.2769,-0.3201,-0.3202,-0.3203,-0.3204,0,-0.2606,-0.2613,-0.2642,-0.2714,-0.2758,-0.2803,-0.2943,-0.3016,-0.3077,-0.3149,-0.3159,-0.3206,-0.3243,-0.3216,-0.3217,-0.3167,-0.309,-0.3211,-0.3165,-0.3178,-0.3067,-0.2923,-0.2854,-0.2777,-0.329,-0.3292,-0.3295,0,-0.2651,-0.2666,-0.271,-0.2703,-0.2782,-0.2825,-0.2913,-0.297,-0.3047,-0.3098,-0.308,-0.3118,-0.3046,-0.3069,-0.3026,-0.3064,-0.304,-0.3044,-0.3063,-0.3005,-0.3008,-0.2859,-0.2711,-0.2958,-0.2958,-0.2957,-0.2957,0,-0.266,-0.2698,-0.271,-0.2721,-0.2779,-0.2819,-0.2877,-0.2934,-0.2989,-0.3024,-0.3045,-0.3016,-0.3014,-0.2988,-0.2966,-0.2924,-0.2997,-0.2938,-0.3024,-0.3031,-0.2993,-0.2997,-0.2882,-0.2956,-0.2956,-0.2955,-0.2955,0,-0.2667,-0.2663,-0.2679,-0.2746,-0.2763,-0.2794,-0.2882,-0.2922,-0.2962,-0.2966,-0.2946,-0.2927,-0.2915,-0.2861,-0.2863,-0.2853,-0.286,-0.2862,-0.2865,-0.2937,-0.2943,-0.2918,-0.3018,-0.2844,-0.2911,-0.291,-0.2909,0,-0.2656,-0.2653,-0.2658,-0.2703,-0.2719,-0.275,-0.2796,-0.2825,-0.2837,-0.2864,-0.2831,-0.2849,-0.2785,-0.2795,-0.278,-0.2806,-0.2817,-0.2783,-0.2845,-0.2847,-0.2872,-0.2978,-0.2927,-0.3004,-0.29,-0.2901,-0.2902,0,-0.2639,-0.264,-0.2638,-0.2652,-0.2662,-0.2688,-0.273,-0.2764,-0.2808,-0.2762,-0.2796,-0.2784,-0.2751,-0.2765,-0.277,-0.277,-0.2803,-0.2775,-0.2775,-0.276,-0.2869,-0.2955,-0.2969,-0.281,-0.2811,-0.2811,-0.2895,0,-0.2603,-0.2615,-0.2625,-0.2625,-0.264,-0.2663,-0.2683,-0.2698,-0.2702,-0.2701,-0.2715,-0.2685,-0.2695,-0.2714,-0.271,-0.2756,-0.2776,-0.2765,-0.2696,-0.2767,-0.2803,-0.2809,-0.2735,-0.2734,-0.2734,-0.2733,0,0,-0.2577,-0.2597,-0.2592,-0.2587,-0.2603,-0.2615,-0.2636,-0.2655,-0.2654,-0.2662,-0.2629,-0.2655,-0.2627,-0.2671,-0.2705,-0.2708,-0.2733,-0.2666,-0.2757,-0.276,-0.2762,-0.2797,-0.2803,-0.2733,-0.2733,-0.2732,-0.2732,0,-0.2562,-0.258,-0.2584,-0.2586,-0.259,-0.2609,-0.2614,-0.2629,-0.2638,-0.2631,-0.2643,-0.2631,-0.2615,-0.2623,-0.2633,-0.27,-0.2667,-0.2737,-0.2737,-0.2754,-0.2757,-0.276,-0.2794,-0.28,-0.2731,-0.2731,-0.2732,0,-0.2532,-0.2532,-0.255,-0.2564,-0.2582,-0.26,-0.2599,-0.262,-0.2641,-0.2592,-0.2594,-0.2585,-0.2592,-0.2597,-0.2594,-0.2568,-0.2606,-0.2586,-0.2591,-0.2569,-0.2582,-0.2588,-0.2593,-0.2513,-0.2511,-0.251,0,0,-0.2505,-0.2515,-0.2534,-0.2566,-0.2571,-0.2594,-0.2605,-0.2611,-0.2616,-0.2615,-0.2574,-0.2571,-0.258,-0.2553,-0.2547,-0.2532,-0.2526,-0.2555,-0.2565,-0.2573,-0.2555,-0.2571,-0.2578,-0.2506,-0.2506,-0.2505,0,0,-0.2504,-0.2523,-0.2526,-0.2563,-0.2571,-0.2603,-0.2615,-0.2623,-0.2618,-0.262,-0.2571,-0.2555,-0.2546,-0.2527,-0.2475,-0.2523,-0.2492,-0.2499,-0.2493,-0.2506,-0.2516,-0.2492,-0.2409,0,0,0,0,0,-0.2495,-0.252,-0.2522,-0.2531,-0.2584,-0.2604,-0.2609,-0.2618,-0.263,-0.2628,-0.2614,-0.2558,-0.252,-0.2472,-0.2454,-0.2466,-0.2448,-0.2458,-0.2468,-0.2461,-0.2475,-0.2486,0,0,0,0,0,0,-0.2499,-0.2512,-0.2521,-0.2557,-0.2568,-0.2604,-0.2611,-0.2614,-0.2628,-0.2628,-0.2571,-0.2556,-0.2516,-0.2475,-0.246,-0.2473,-0.2414,-0.2452,-0.2461,-0.2468,-0.2465,-0.2477,-0.2487,0,0,0,0,0,-0.2502,-0.2512,-0.2595,-0.2556,-0.2566,-0.2585,-0.261,-0.2613,-0.2625,-0.2568,-0.2557,-0.2629,-0.2518,-0.2501,-0.2466,-0.2482,-0.2423,-0.2418,-0.2457,-0.2464,-0.247,-0.2471,0,0,0,0,0,0,-0.2505,-0.2516,-0.2597,-0.26,-0.2545,-0.2582,-0.2589,-0.2611,-0.2562,-0.2556,-0.2621,-0.262,-0.252,-0.2506,-0.2493,-0.249,-0.2431,-0.2426,-0.2423,-0.2463,-0.2468,-0.2473,0,0,0,0,0,0,-0.251,-0.2518,-0.2598,-0.2584,-0.2585,-0.2579,-0.2585,-0.2534,-0.2557,-0.2616,-0.2616,-0.262,-0.2495,-0.251,-0.2499,-0.2424,-0.2437,-0.2432,-0.2429,-0.2426,-0.2467,-0.2471,0,0,0,0,0,0,-0.2514,-0.2521,-0.2583,-0.2584,-0.2585,-0.262,-0.2528,-0.2555,-0.2631,-0.2615,-0.2628,-0.2627,-0.2496,-0.2488,-0.2504,-0.2433,-0.2426,-0.2437,-0.2434,-0.2431,-0.243,0,0,0,0,0,0,0,-0.2516,-0.247,-0.2578,-0.2585,-0.2586,-0.2627,-0.2628,-0.2629,-0.263,-0.2629,-0.2628,-0.2627,-0.2466,-0.246,-0.2455,-0.2441,0,0,-0.2437,-0.2435,0,0,0,0,0,0,0,0,-0.2467,-0.2469,-0.2578,-0.2578,-0.2579,-0.2627,-0.2628,-0.2628,-0.263,-0.2629,-0.2628,-0.2628,-0.2464,-0.246,-0.2455,0,0,0,0,0,0,0,0,0,0,0,0,0,0,0,-0.2578,-0.2578,0,-0.2627,-0.2628,-0.2628,-0.263,-0.2629,-0.2629,-0.2628,-0.2463,-0.2459,-0.2456,0,0,0,0,0,0,0,0,0,0,0,0,0,0,0,0,0,0,0,0,0,0,0,0,0,0,0,0,0,0,0,0,0,0,0,0,0,0,0,0,0,0,0,0,0,0,0,0,0,0,0,0,0,0,0,0,0,0,0,0,0,0,0,0,0,0,0,0,0]}],[{"header":{"parameterUnit":"kt","parameterCategory":2,"dx":1,"dy":1,"la1":30.253999710083008,"la2":30.299108505249023,"lo1":-89.0895004272461,"lo2":-89.04439544677734,"nx":28,"ny":28,"refTime":"2022-10-17T21:00:00:Z","depth":"0","parameterNumber":3,"parameterNumberName":"V-component_of_CURRENTS"},"data":[-0.1733,-0.1853,-0.1915,-0.2133,-0.2251,-0.2392,-0.2457,-0.2545,-0.2531,-0.2492,-0.2358,-0.2211,-0.1933,-0.1437,-0.1116,-0.1063,-0.103,-0.1037,-0.098,-0.1054,-0.106,-0.1066,-0.103,-0.1007,-0.1007,-0.0927,-0.0926,-0.0925,-0.1679,-0.177,-0.189,-0.2074,-0.2207,-0.2256,-0.2378,-0.2444,-0.2469,-0.239,-0.2345,-0.2178,-0.1971,-0.1719,-0.1336,-0.1155,-0.114,-0.1095,-0.1117,-0.1091,-0.1173,-0.1141,-0.1141,-0.1141,-0.1141,-0.1141,-0.1142,-0.1142,-0.1653,-0.1694,-0.178,-0.1954,-0.2077,-0.2207,-0.2298,-0.2344,-0.2345,-0.2237,-0.2189,-0.2119,-0.1893,-0.1633,-0.1512,-0.1265,-0.1246,-0.1167,-0.1147,-0.1154,-0.1092,-0.1195,-0.1176,-0.1175,-0.1175,-0.1175,-0.1175,0,-0.1627,-0.1657,-0.1717,-0.1851,-0.1969,-0.2089,-0.217,-0.2175,-0.2116,-0.2051,-0.1988,-0.1935,-0.1771,-0.1651,-0.1472,-0.1412,-0.1219,-0.1251,-0.1222,-0.1165,-0.1192,-0.1165,-0.1262,-0.1248,-0.1248,-0.1249,-0.1249,-0.1249,-0.1661,-0.1653,-0.172,-0.1797,-0.1828,-0.192,-0.1992,-0.1961,-0.1959,-0.1825,-0.1811,-0.1693,-0.1662,-0.1542,-0.1394,-0.1332,-0.13,-0.1262,-0.12,-0.1195,-0.1177,-0.1181,-0.1156,-0.1251,-0.1251,-0.1251,-0.125,0,-0.1698,-0.1658,-0.1684,-0.17,-0.1739,-0.1792,-0.1869,-0.1893,-0.1789,-0.1757,-0.172,-0.156,-0.1512,-0.1417,-0.136,-0.1285,-0.1232,-0.1253,-0.1307,-0.1309,-0.1209,-0.1191,-0.1162,-0.1129,-0.1218,-0.1217,-0.1217,0,-0.1681,-0.1697,-0.1664,-0.1657,-0.1736,-0.1703,-0.1769,-0.1749,-0.168,-0.1669,-0.153,-0.1495,-0.1367,-0.1325,-0.1304,-0.1268,-0.1278,-0.1218,-0.1219,-0.1237,-0.1238,-0.1199,-0.1179,-0.122,-0.1219,-0.1219,-0.1218,0,-0.1699,-0.1642,-0.1637,-0.1621,-0.1602,-0.1645,-0.167,-0.1611,-0.1609,-0.1523,-0.1459,-0.141,-0.1372,-0.1333,-0.1293,-0.1278,-0.1258,-0.1233,-0.1222,-0.1224,-0.1222,-0.1223,-0.1188,-0.1217,-0.1217,-0.1217,-0.1217,0,-0.1664,-0.1619,-0.1565,-0.1605,-0.159,-0.1585,-0.1605,-0.1586,-0.1513,-0.1465,-0.1408,-0.1346,-0.1329,-0.1282,-0.127,-0.1271,-0.1273,-0.1253,-0.1255,-0.1204,-0.1215,-0.13,-0.1286,-0.1258,-0.1307,-0.1308,-0.1308,0,-0.1734,-0.1617,-0.1589,-0.156,-0.1519,-0.1498,-0.1486,-0.1459,-0.1407,-0.1351,-0.1333,-0.1304,-0.1297,-0.1291,-0.1264,-0.1264,-0.1263,-0.1258,-0.1253,-0.1253,-0.1241,-0.1216,-0.1232,-0.1288,-0.1309,-0.1309,-0.1309,0,-0.1775,-0.1657,-0.1637,-0.163,-0.1513,-0.1476,-0.1454,-0.1415,-0.1407,-0.1311,-0.1286,-0.1305,-0.1261,-0.1283,-0.1305,-0.1272,-0.1271,-0.1268,-0.1266,-0.132,-0.1259,-0.1226,-0.1223,-0.1243,-0.1242,-0.1241,-0.131,0,-0.1716,-0.1709,-0.166,-0.1561,-0.1511,-0.1449,-0.138,-0.1348,-0.1311,-0.1256,-0.1255,-0.1215,-0.1208,-0.1242,-0.1247,-0.1283,-0.1305,-0.128,-0.1283,-0.1262,-0.1298,-0.1297,-0.13,-0.1299,-0.1299,-0.1299,0,0,-0.1783,-0.1758,-0.1696,-0.16,-0.1556,-0.1458,-0.1408,-0.1362,-0.1235,-0.123,-0.1186,-0.117,-0.1194,-0.1258,-0.1256,-0.1258,-0.1263,-0.1312,-0.1269,-0.1266,-0.1263,-0.1296,-0.1295,-0.1298,-0.1298,-0.1298,-0.1298,0,-0.1742,-0.1768,-0.1737,-0.165,-0.1504,-0.145,-0.1422,-0.128,-0.1264,-0.1193,-0.1206,-0.1191,-0.1198,-0.1231,-0.1259,-0.1247,-0.1317,-0.1301,-0.1294,-0.1267,-0.1265,-0.1262,-0.1294,-0.1294,-0.1297,-0.1297,-0.1297,0,-0.1745,-0.1685,-0.1703,-0.161,-0.1509,-0.1433,-0.1377,-0.1284,-0.126,-0.1227,-0.1185,-0.1189,-0.122,-0.1242,-0.1257,-0.1255,-0.1318,-0.132,-0.132,-0.1312,-0.1283,-0.128,-0.1277,-0.1318,-0.1319,-0.1319,0,0,-0.1698,-0.1708,-0.1592,-0.159,-0.1533,-0.1408,-0.135,-0.1304,-0.1224,-0.1201,-0.1183,-0.1189,-0.1223,-0.1233,-0.1253,-0.1264,-0.1259,-0.1326,-0.1325,-0.1324,-0.1316,-0.1287,-0.1284,-0.132,-0.132,-0.132,0,0,-0.1657,-0.1585,-0.157,-0.1588,-0.1469,-0.1327,-0.1282,-0.1237,-0.1186,-0.1199,-0.1203,-0.1206,-0.1229,-0.1233,-0.1239,-0.1315,-0.1313,-0.1311,-0.1336,-0.1335,-0.1333,-0.1324,-0.1331,0,0,0,0,0,-0.1553,-0.1592,-0.158,-0.1567,-0.1475,-0.134,-0.1318,-0.1245,-0.1237,-0.1212,-0.1179,-0.1253,-0.1233,-0.1238,-0.1249,-0.133,-0.1339,-0.1335,-0.1332,-0.1367,-0.1365,-0.1364,0,0,0,0,0,0,-0.1547,-0.1538,-0.1575,-0.1449,-0.1423,-0.1342,-0.133,-0.131,-0.1239,-0.1235,-0.1245,-0.1254,-0.1275,-0.124,-0.1248,-0.1326,-0.1329,-0.1337,-0.1334,-0.1332,-0.1366,-0.1365,-0.1364,0,0,0,0,0,-0.1541,-0.1533,-0.1433,-0.1444,-0.1423,-0.1311,-0.1332,-0.1316,-0.1272,-0.1269,-0.1271,-0.1216,-0.1274,-0.1283,-0.1245,-0.1322,-0.1324,-0.1327,-0.1335,-0.1333,-0.1331,-0.1365,0,0,0,0,0,0,-0.1537,-0.1518,-0.1424,-0.1409,-0.1455,-0.1313,-0.1301,-0.1321,-0.1313,-0.1307,-0.1245,-0.1244,-0.1273,-0.128,-0.1287,-0.1319,-0.132,-0.1323,-0.1324,-0.1334,-0.1332,-0.1331,0,0,0,0,0,0,-0.1519,-0.1509,-0.1417,-0.1436,-0.1423,-0.1315,-0.1304,-0.133,-0.1321,-0.1296,-0.1289,-0.1246,-0.1309,-0.1278,-0.1284,-0.1319,-0.1317,-0.132,-0.1322,-0.1323,-0.1332,-0.1331,0,0,0,0,0,0,-0.1511,-0.1502,-0.144,-0.1431,-0.142,-0.1261,-0.1341,-0.1292,-0.1215,-0.1304,-0.1217,-0.1218,-0.1311,-0.1313,-0.1281,-0.1314,-0.1318,-0.1317,-0.1319,-0.132,-0.1321,0,0,0,0,0,0,0,-0.1504,-0.1614,-0.1495,-0.1427,-0.1417,-0.127,-0.1268,-0.1265,-0.1215,-0.1216,-0.1217,-0.1217,-0.1303,-0.1306,-0.1309,-0.131,0,0,-0.1317,-0.1318,0,0,0,0,0,0,0,0,-0.1613,-0.1614,-0.1494,-0.149,-0.1486,-0.127,-0.1268,-0.1266,-0.1215,-0.1216,-0.1217,-0.1217,-0.1304,-0.1306,-0.1308,0,0,0,0,0,0,0,0,0,0,0,0,0,0,0,-0.1494,-0.149,0,-0.1269,-0.1268,-0.1266,-0.1215,-0.1216,-0.1216,-0.1217,-0.1305,-0.1306,-0.1308,0,0,0,0,0,0,0,0,0,0,0,0,0,0,0,0,0,0,0,0,0,0,0,0,0,0,0,0,0,0,0,0,0,0,0,0,0,0,0,0,0,0,0,0,0,0,0,0,0,0,0,0,0,0,0,0,0,0,0,0,0,0,0,0,0,0,0,0,0]}]],[[{"header":{"parameterUnit":"kt","parameterCategory":2,"dx":1,"dy":1,"la1":30.253999710083008,"la2":30.299108505249023,"lo1":-89.0895004272461,"lo2":-89.04439544677734,"nx":28,"ny":28,"refTime":"2022-10-17T21:00:00:Z","depth":"2","parameterNumber":2,"parameterNumberName":"U-component_of_CURRENTS"},"data":[-0.2349,-0.2336,-0.2361,-0.2318,-0.2353,-0.2309,-0.2324,-0.2261,-0.2268,-0.2261,-0.2231,-0.2459,-0.2536,-0.2036,-0.1964,-0.1702,-0.1751,-0.1587,-0.2564,-0.2264,-0.2291,-0.2338,-0.2223,0,0,0,0,0,-0.2406,-0.241,-0.2464,-0.2496,-0.2522,-0.2623,-0.2739,-0.2681,-0.2665,-0.2787,-0.2839,-0.2618,-0.255,-0.2538,-0.2375,-0.2413,-0.2264,-0.2139,-0.1845,-0.1885,-0.1919,-0.1807,-0.154,-0.1535,-0.1531,-0.1527,0,0,-0.2473,-0.2481,-0.25,-0.2568,-0.2656,-0.2743,-0.2775,-0.287,-0.295,-0.2971,-0.3183,-0.3151,-0.3185,-0.3152,-0.3024,-0.2884,-0.3162,-0.2796,-0.2795,-0.2801,-0.2748,-0.2732,-0.2724,-0.2728,-0.2732,-0.2735,-0.2738,0,-0.2531,-0.2542,-0.2551,-0.2634,-0.2708,-0.2812,-0.2924,-0.2984,-0.311,-0.3179,-0.3279,-0.3351,-0.35,-0.3357,-0.3407,-0.3328,-0.3028,-0.3003,-0.3382,-0.2553,-0.2523,-0.2524,-0.2534,-0.2487,-0.2491,-0.2493,-0.2495,-0.2496,-0.2592,-0.2593,-0.2664,-0.2692,-0.2715,-0.2809,-0.2898,-0.3021,-0.3081,-0.3213,-0.324,-0.3334,-0.3382,-0.3453,-0.3434,-0.3436,-0.3366,-0.3063,-0.2917,-0.3232,-0.3238,-0.3227,-0.3218,-0.253,-0.2526,-0.2522,-0.2519,0,-0.2625,-0.2633,-0.266,-0.2731,-0.2776,-0.2818,-0.296,-0.3032,-0.3094,-0.3166,-0.3176,-0.3224,-0.3261,-0.3236,-0.3237,-0.3188,-0.3203,-0.3232,-0.2894,-0.2873,-0.3202,-0.3196,-0.3303,-0.3307,-0.331,-0.3313,-0.3315,0,-0.2672,-0.2686,-0.2729,-0.2722,-0.2799,-0.2843,-0.293,-0.2988,-0.3064,-0.3117,-0.3099,-0.3137,-0.3066,-0.309,-0.3048,-0.3085,-0.3061,-0.3067,-0.3085,-0.277,-0.2752,-0.2943,-0.2937,-0.2981,-0.2981,-0.298,-0.298,0,-0.2681,-0.2718,-0.2729,-0.2739,-0.2798,-0.2837,-0.2896,-0.2954,-0.3008,-0.3044,-0.3065,-0.3038,-0.3035,-0.3009,-0.2988,-0.2946,-0.302,-0.296,-0.3045,-0.3052,-0.2766,-0.2748,-0.2979,-0.2979,-0.2979,-0.2978,-0.2978,0,-0.2689,-0.2686,-0.2699,-0.2768,-0.2783,-0.2814,-0.2902,-0.2942,-0.2983,-0.2987,-0.2967,-0.2949,-0.2938,-0.2884,-0.2887,-0.2875,-0.2882,-0.2885,-0.2888,-0.296,-0.2964,-0.2675,-0.2709,-0.2933,-0.2932,-0.2932,-0.2931,0,-0.2681,-0.2678,-0.2684,-0.2726,-0.2741,-0.2772,-0.2818,-0.2847,-0.286,-0.2887,-0.2854,-0.2872,-0.281,-0.2818,-0.2804,-0.283,-0.2841,-0.2807,-0.2867,-0.2869,-0.2896,-0.2998,-0.2654,-0.2706,-0.2922,-0.2923,-0.2924,0,-0.2669,-0.2668,-0.2666,-0.2679,-0.2688,-0.2712,-0.2753,-0.2787,-0.2831,-0.2785,-0.2819,-0.2808,-0.2775,-0.279,-0.2794,-0.2794,-0.2827,-0.2798,-0.2798,-0.2786,-0.289,-0.2975,-0.2989,-0.2831,-0.2831,-0.2832,-0.2916,0,-0.2639,-0.2651,-0.2658,-0.2655,-0.2668,-0.2687,-0.2707,-0.2721,-0.2725,-0.2724,-0.2738,-0.2709,-0.2719,-0.2737,-0.2734,-0.2779,-0.2799,-0.2787,-0.2722,-0.279,-0.2826,-0.2831,-0.2757,-0.2756,-0.2756,-0.2756,0,0,-0.2617,-0.2636,-0.2626,-0.262,-0.2635,-0.2644,-0.2663,-0.268,-0.2678,-0.2686,-0.2652,-0.268,-0.2653,-0.2699,-0.273,-0.2733,-0.2757,-0.2694,-0.2779,-0.2782,-0.2785,-0.282,-0.2825,-0.2755,-0.2755,-0.2755,-0.2755,0,-0.2602,-0.2622,-0.2621,-0.262,-0.262,-0.2638,-0.2641,-0.2654,-0.2661,-0.2654,-0.2667,-0.2656,-0.2642,-0.2651,-0.2661,-0.2725,-0.2695,-0.2759,-0.2761,-0.2776,-0.2779,-0.2782,-0.2817,-0.2823,-0.2754,-0.2754,-0.2754,0,-0.2574,-0.2574,-0.2587,-0.2601,-0.2614,-0.2631,-0.2628,-0.2645,-0.2665,-0.2619,-0.2622,-0.2613,-0.2621,-0.2627,-0.2624,-0.2599,-0.2638,-0.2618,-0.2623,-0.2603,-0.2616,-0.2621,-0.2626,-0.2549,-0.2548,-0.2547,0,0,-0.2547,-0.2553,-0.2571,-0.2603,-0.2606,-0.2625,-0.2634,-0.2639,-0.2641,-0.264,-0.2602,-0.26,-0.261,-0.2585,-0.258,-0.2566,-0.2562,-0.2588,-0.2598,-0.2606,-0.259,-0.2606,-0.2612,-0.2543,-0.2543,-0.2543,0,0,-0.2544,-0.2558,-0.256,-0.2601,-0.2605,-0.2632,-0.2642,-0.2649,-0.2644,-0.2645,-0.2601,-0.2585,-0.2577,-0.2559,-0.2511,-0.2557,-0.2528,-0.2535,-0.2529,-0.254,-0.255,-0.2529,-0.2449,0,0,0,0,0,-0.2526,-0.2555,-0.2556,-0.2566,-0.2618,-0.2633,-0.2637,-0.2645,-0.2656,-0.2652,-0.264,-0.2588,-0.2553,-0.2507,-0.2491,-0.2502,-0.2488,-0.2498,-0.2507,-0.2499,-0.2512,-0.2524,0,0,0,0,0,0,-0.253,-0.2542,-0.2555,-0.2587,-0.2599,-0.2633,-0.264,-0.2643,-0.2655,-0.2654,-0.2601,-0.2586,-0.2549,-0.251,-0.2497,-0.2509,-0.2454,-0.2492,-0.25,-0.2508,-0.2504,-0.2515,-0.2524,0,0,0,0,0,-0.2533,-0.2543,-0.2627,-0.2586,-0.2596,-0.2612,-0.2639,-0.2641,-0.2651,-0.2599,-0.2588,-0.2654,-0.2551,-0.2535,-0.2502,-0.2517,-0.2462,-0.2458,-0.2497,-0.2504,-0.251,-0.2509,0,0,0,0,0,0,-0.2535,-0.2544,-0.2629,-0.2631,-0.2575,-0.2609,-0.2616,-0.264,-0.2593,-0.2586,-0.2647,-0.2646,-0.2552,-0.2539,-0.2527,-0.2525,-0.247,-0.2465,-0.2462,-0.2502,-0.2507,-0.2512,0,0,0,0,0,0,-0.2539,-0.2547,-0.263,-0.2616,-0.2617,-0.2606,-0.2612,-0.2566,-0.2588,-0.2642,-0.2642,-0.2646,-0.253,-0.2543,-0.2533,-0.2464,-0.2475,-0.247,-0.2467,-0.2465,-0.2506,-0.251,0,0,0,0,0,0,-0.2542,-0.2549,-0.2615,-0.2616,-0.2617,-0.2648,-0.256,-0.2588,-0.2655,-0.2641,-0.2652,-0.2651,-0.2531,-0.2523,-0.2538,-0.2473,-0.2467,-0.2475,-0.2472,-0.2469,-0.2468,0,0,0,0,0,0,0,-0.2545,-0.2499,-0.2612,-0.2616,-0.2617,-0.2656,-0.2657,-0.2658,-0.2655,-0.2654,-0.2653,-0.2652,-0.2501,-0.2496,-0.2491,-0.248,0,0,-0.2475,-0.2473,0,0,0,0,0,0,0,0,-0.2496,-0.2498,-0.2612,-0.2612,-0.2613,-0.2656,-0.2657,-0.2657,-0.2655,-0.2654,-0.2653,-0.2652,-0.25,-0.2496,-0.2492,0,0,0,0,0,0,0,0,0,0,0,0,0,0,0,-0.2612,-0.2612,0,-0.2656,-0.2657,-0.2657,-0.2655,-0.2654,-0.2653,-0.2653,-0.2499,-0.2495,-0.2492,0,0,0,0,0,0,0,0,0,0,0,0,0,0,0,0,0,0,0,0,0,0,0,0,0,0,0,0,0,0,0,0,0,0,0,0,0,0,0,0,0,0,0,0,0,0,0,0,0,0,0,0,0,0,0,0,0,0,0,0,0,0,0,0,0,0,0,0,0]}],[{"header":{"parameterUnit":"kt","parameterCategory":2,"dx":1,"dy":1,"la1":30.253999710083008,"la2":30.299108505249023,"lo1":-89.0895004272461,"lo2":-89.04439544677734,"nx":28,"ny":28,"refTime":"2022-10-17T21:00:00:Z","depth":"2","parameterNumber":3,"parameterNumberName":"V-component_of_CURRENTS"},"data":[-0.1561,-0.1671,-0.1725,-0.1927,-0.2081,-0.2139,-0.2199,-0.1973,-0.1792,-0.1512,-0.1221,-0.1047,-0.0552,0.0008,0.0305,0.0628,0.04,0.0637,-0.0052,0.0045,-0.0008,0.0147,0.0307,0,0,0,0,0,-0.1504,-0.1644,-0.1764,-0.1958,-0.2049,-0.2139,-0.2256,-0.2153,-0.2039,-0.1924,-0.1786,-0.1117,-0.0674,-0.039,0.0151,0.028,0.0312,0.0327,0.0474,0.0424,0.0378,0.0509,0.0882,0.0882,0.0882,0.0882,0,0,-0.1522,-0.1565,-0.1656,-0.1833,-0.1961,-0.2088,-0.218,-0.2142,-0.2112,-0.1921,-0.1931,-0.1614,-0.1262,-0.0774,-0.0615,-0.0353,-0.0507,-0.0256,-0.027,-0.0293,-0.0196,-0.0187,-0.0009,-0.0014,-0.0018,-0.0022,-0.0026,0,-0.1488,-0.1523,-0.1593,-0.1725,-0.1849,-0.1974,-0.2055,-0.2058,-0.2001,-0.1913,-0.1841,-0.1769,-0.1548,-0.1181,-0.0974,-0.0886,-0.0695,-0.0607,-0.115,-0.0282,-0.0273,-0.0277,-0.0306,-0.0125,-0.0131,-0.0136,-0.0139,-0.0141,-0.1519,-0.1514,-0.1588,-0.1672,-0.1709,-0.1805,-0.1876,-0.1848,-0.1847,-0.1707,-0.169,-0.157,-0.1522,-0.1405,-0.119,-0.1112,-0.1212,-0.0734,-0.0615,-0.1112,-0.1118,-0.112,-0.1122,-0.0203,-0.0195,-0.0189,-0.0183,0,-0.1557,-0.152,-0.1557,-0.1579,-0.1616,-0.1675,-0.1758,-0.1782,-0.1677,-0.1643,-0.1605,-0.1439,-0.1392,-0.1302,-0.1245,-0.117,-0.1136,-0.1137,-0.0797,-0.0757,-0.1127,-0.1128,-0.1103,-0.1102,-0.1101,-0.11,-0.11,0,-0.1536,-0.1562,-0.1528,-0.1528,-0.1611,-0.1587,-0.1657,-0.1634,-0.1564,-0.1553,-0.1413,-0.1374,-0.1251,-0.1209,-0.1189,-0.1153,-0.1165,-0.11,-0.1102,-0.0776,-0.0749,-0.1109,-0.1109,-0.1103,-0.1102,-0.1102,-0.1101,0,-0.1548,-0.1503,-0.1503,-0.1491,-0.1481,-0.1526,-0.1553,-0.1492,-0.1492,-0.1404,-0.1338,-0.1292,-0.1256,-0.1217,-0.1178,-0.1164,-0.1143,-0.1119,-0.1106,-0.1108,-0.0766,-0.0738,-0.11,-0.11,-0.11,-0.11,-0.11,0,-0.1514,-0.1473,-0.1429,-0.1476,-0.1467,-0.1465,-0.1483,-0.1467,-0.139,-0.1344,-0.1288,-0.1228,-0.1211,-0.1164,-0.1154,-0.1156,-0.1159,-0.1138,-0.114,-0.1083,-0.1097,-0.0807,-0.0728,-0.1197,-0.1197,-0.1197,-0.1197,0,-0.1567,-0.1459,-0.1431,-0.1423,-0.1391,-0.1374,-0.136,-0.1335,-0.1284,-0.1225,-0.1212,-0.1185,-0.1179,-0.1176,-0.1147,-0.115,-0.1147,-0.1142,-0.1137,-0.1137,-0.1104,-0.11,-0.0721,-0.0747,-0.1199,-0.1199,-0.1199,0,-0.1582,-0.1482,-0.1465,-0.1479,-0.1371,-0.1344,-0.132,-0.129,-0.1278,-0.1187,-0.1162,-0.1186,-0.1144,-0.1166,-0.119,-0.1154,-0.1156,-0.1152,-0.1149,-0.1186,-0.1146,-0.1111,-0.1107,-0.1129,-0.1128,-0.1127,-0.12,0,-0.1489,-0.1495,-0.1459,-0.1407,-0.1363,-0.1314,-0.1253,-0.1222,-0.1185,-0.1131,-0.1135,-0.1096,-0.1087,-0.1127,-0.1128,-0.1168,-0.1192,-0.1166,-0.1143,-0.1145,-0.1183,-0.1182,-0.1184,-0.1183,-0.1183,-0.1182,0,0,-0.1531,-0.153,-0.1505,-0.1422,-0.1386,-0.1312,-0.1273,-0.1229,-0.1108,-0.1104,-0.1058,-0.1044,-0.1059,-0.1122,-0.1131,-0.1137,-0.1143,-0.117,-0.1151,-0.1148,-0.1145,-0.118,-0.118,-0.1182,-0.1181,-0.1181,-0.1181,0,-0.1489,-0.1529,-0.1537,-0.1466,-0.1354,-0.1303,-0.128,-0.1151,-0.1134,-0.1065,-0.1073,-0.1059,-0.1057,-0.1086,-0.1111,-0.1125,-0.1171,-0.1186,-0.1177,-0.1149,-0.1147,-0.1144,-0.1178,-0.1178,-0.118,-0.118,-0.118,0,-0.1489,-0.1448,-0.1499,-0.1424,-0.1355,-0.1287,-0.1231,-0.1149,-0.1126,-0.1078,-0.1029,-0.1032,-0.1058,-0.1081,-0.1095,-0.1084,-0.1151,-0.1152,-0.1154,-0.1136,-0.1105,-0.1103,-0.1101,-0.1125,-0.1125,-0.1125,0,0,-0.1444,-0.1494,-0.1402,-0.141,-0.1364,-0.1263,-0.1205,-0.1162,-0.1083,-0.1059,-0.1024,-0.1024,-0.1056,-0.1057,-0.1074,-0.1083,-0.1071,-0.1147,-0.1149,-0.1152,-0.1135,-0.1105,-0.1103,-0.1125,-0.1125,-0.1125,0,0,-0.1405,-0.1384,-0.1403,-0.1403,-0.132,-0.1184,-0.1138,-0.1092,-0.1039,-0.1049,-0.103,-0.1028,-0.105,-0.1047,-0.1036,-0.1122,-0.1109,-0.111,-0.113,-0.1133,-0.1136,-0.1115,-0.1094,0,0,0,0,0,-0.1382,-0.1393,-0.1414,-0.1402,-0.1321,-0.12,-0.1178,-0.1097,-0.1082,-0.1062,-0.102,-0.1069,-0.1042,-0.1031,-0.1035,-0.1114,-0.1122,-0.1123,-0.1123,-0.1153,-0.1156,-0.1159,0,0,0,0,0,0,-0.1377,-0.1372,-0.1408,-0.129,-0.1266,-0.1202,-0.1177,-0.1156,-0.1084,-0.1079,-0.1066,-0.1069,-0.1073,-0.1033,-0.1036,-0.1111,-0.1094,-0.1122,-0.1123,-0.1123,-0.1154,-0.1157,-0.1159,0,0,0,0,0,-0.1372,-0.1367,-0.1288,-0.1285,-0.1265,-0.1145,-0.1179,-0.1161,-0.1118,-0.1089,-0.1087,-0.1056,-0.1073,-0.1076,-0.1035,-0.111,-0.1092,-0.1093,-0.1123,-0.1123,-0.1123,-0.1155,0,0,0,0,0,0,-0.1367,-0.1349,-0.1279,-0.1263,-0.1291,-0.1146,-0.1135,-0.1166,-0.1135,-0.1125,-0.1083,-0.108,-0.1073,-0.1075,-0.1078,-0.111,-0.109,-0.1091,-0.1092,-0.1123,-0.1123,-0.1123,0,0,0,0,0,0,-0.1347,-0.134,-0.1272,-0.1285,-0.1272,-0.1147,-0.1137,-0.1148,-0.1142,-0.1137,-0.1128,-0.1083,-0.1105,-0.1074,-0.1077,-0.1091,-0.1089,-0.109,-0.1091,-0.1091,-0.1123,-0.1123,0,0,0,0,0,0,-0.134,-0.1332,-0.129,-0.1279,-0.1268,-0.1103,-0.1158,-0.1115,-0.1051,-0.1145,-0.1051,-0.1052,-0.1107,-0.1106,-0.1076,-0.1089,-0.109,-0.1089,-0.109,-0.109,-0.1091,0,0,0,0,0,0,0,-0.1333,-0.1438,-0.1352,-0.1275,-0.1265,-0.112,-0.1118,-0.1115,-0.1051,-0.1051,-0.1051,-0.1051,-0.1084,-0.1085,-0.1086,-0.1087,0,0,-0.1089,-0.1089,0,0,0,0,0,0,0,0,-0.1435,-0.1437,-0.1351,-0.1347,-0.1343,-0.112,-0.1118,-0.1116,-0.1051,-0.1051,-0.1051,-0.1051,-0.1084,-0.1085,-0.1086,0,0,0,0,0,0,0,0,0,0,0,0,0,0,0,-0.1351,-0.1347,0,-0.1119,-0.1118,-0.1116,-0.1051,-0.1051,-0.1051,-0.1051,-0.1084,-0.1085,-0.1086,0,0,0,0,0,0,0,0,0,0,0,0,0,0,0,0,0,0,0,0,0,0,0,0,0,0,0,0,0,0,0,0,0,0,0,0,0,0,0,0,0,0,0,0,0,0,0,0,0,0,0,0,0,0,0,0,0,0,0,0,0,0,0,0,0,0,0,0,0]}]],[[{"header":{"parameterUnit":"kt","parameterCategory":2,"dx":1,"dy":1,"la1":30.253999710083008,"la2":30.299108505249023,"lo1":-89.0895004272461,"lo2":-89.04439544677734,"nx":28,"ny":28,"refTime":"2022-10-17T21:00:00:Z","depth":"4","parameterNumber":2,"parameterNumberName":"U-component_of_CURRENTS"},"data":[-0.073,-0.0806,-0.09,-0.1073,-0.1186,-0.1198,-0.1172,-0.1173,-0.1127,-0.1205,-0.1199,-0.1285,-0.1289,-0.1435,-0.135,-0.1351,-0.1505,-0.14,-0.1396,-0.1736,-0.1764,-0.1789,-0.1835,0,0,0,0,0,-0.0778,-0.0735,-0.0966,-0.1149,-0.1263,-0.1304,-0.1285,-0.1224,-0.1226,-0.1245,-0.1312,-0.1348,-0.1391,-0.1402,-0.1355,-0.1424,-0.1595,-0.1359,-0.1644,-0.1754,-0.1785,-0.1819,0,0,0,0,0,0,-0.0807,-0.0828,-0.0925,-0.1163,-0.1292,-0.1274,-0.1285,-0.125,-0.1227,-0.1401,-0.1373,-0.1542,-0.1638,-0.1588,-0.1599,-0.1607,-0.1607,-0.1636,-0.1671,-0.1701,-0.1704,-0.171,-0.1256,0,0,0,0,0,-0.0729,-0.0795,-0.0879,-0.111,-0.1247,-0.1283,-0.1379,-0.132,-0.1462,-0.1567,-0.1632,-0.169,-0.1675,-0.1749,-0.1757,-0.1789,-0.2073,-0.1957,-0.1975,-0.2094,-0.2125,-0.2151,-0.2189,-0.1902,-0.1906,-0.1909,-0.191,0,-0.0754,-0.0753,-0.0974,-0.1094,-0.1235,-0.1363,-0.145,-0.1602,-0.1617,-0.1816,-0.1822,-0.1891,-0.207,-0.1906,-0.2052,-0.2063,-0.208,-0.2037,-0.2164,-0.2178,-0.2189,-0.2221,-0.225,-0.1935,-0.1933,-0.1931,-0.1929,0,-0.0736,-0.0826,-0.0948,-0.1156,-0.1245,-0.1376,-0.1585,-0.1627,-0.1851,-0.1964,-0.2034,-0.2269,-0.2307,-0.2437,-0.2428,-0.2433,-0.2362,-0.229,-0.2625,-0.2637,-0.2284,-0.2303,-0.1976,-0.1967,-0.1959,-0.1953,-0.1947,0,-0.0846,-0.0915,-0.1096,-0.1122,-0.1286,-0.1484,-0.1652,-0.1933,-0.2083,-0.2189,-0.2482,-0.251,-0.2711,-0.2704,-0.277,-0.2637,-0.27,-0.2561,-0.2535,-0.288,-0.2897,-0.2713,-0.2714,-0.2726,-0.2728,-0.2729,-0.273,0,-0.0939,-0.1096,-0.1178,-0.1229,-0.1474,-0.1642,-0.1807,-0.212,-0.2243,-0.2508,-0.2575,-0.2743,-0.2801,-0.2794,-0.2905,-0.2951,-0.2786,-0.2861,-0.2643,-0.2632,-0.2721,-0.2719,-0.2732,-0.2732,-0.2732,-0.2733,-0.2733,0,-0.1094,-0.112,-0.1258,-0.1427,-0.1496,-0.1649,-0.1926,-0.212,-0.2396,-0.2587,-0.276,-0.2894,-0.3008,-0.3061,-0.3073,-0.3119,-0.3097,-0.3083,-0.3076,-0.2717,-0.2754,-0.2863,-0.3026,-0.3029,-0.3032,-0.3035,-0.3037,0,-0.1077,-0.1161,-0.1304,-0.1453,-0.1524,-0.173,-0.1965,-0.2184,-0.2411,-0.2601,-0.2797,-0.3027,-0.3188,-0.3273,-0.3255,-0.3322,-0.3244,-0.3351,-0.3001,-0.2989,-0.2757,-0.2837,-0.3264,-0.3076,-0.3071,-0.3068,-0.3065,0,-0.1054,-0.1226,-0.1247,-0.1306,-0.1509,-0.1556,-0.187,-0.2078,-0.2202,-0.2537,-0.2678,-0.3119,-0.3166,-0.3234,-0.3349,-0.3272,-0.3306,-0.3213,-0.3202,-0.3088,-0.3103,-0.2912,-0.287,-0.3283,-0.3279,-0.3276,-0.3092,0,-0.11,-0.1179,-0.1224,-0.1362,-0.146,-0.1516,-0.171,-0.1918,-0.2137,-0.226,-0.2618,-0.2843,-0.3031,-0.3205,-0.3254,-0.3348,-0.327,-0.3254,-0.2976,-0.313,-0.3044,-0.3025,-0.317,-0.3164,-0.3159,-0.3155,0,0,-0.1042,-0.1103,-0.1161,-0.1231,-0.1284,-0.1372,-0.1473,-0.1622,-0.187,-0.1998,-0.2097,-0.2581,-0.2755,-0.2946,-0.3086,-0.3199,-0.3086,-0.2994,-0.311,-0.3107,-0.3103,-0.3025,-0.3012,-0.3146,-0.3145,-0.3143,-0.3141,0,-0.1019,-0.1079,-0.1143,-0.1185,-0.1261,-0.1318,-0.1364,-0.152,-0.166,-0.1947,-0.2094,-0.2338,-0.2644,-0.2735,-0.2805,-0.3119,-0.2942,-0.3218,-0.3148,-0.3076,-0.308,-0.3081,-0.3008,-0.3,-0.3129,-0.313,-0.3131,0,-0.0991,-0.1005,-0.1038,-0.1095,-0.1167,-0.1261,-0.1248,-0.1327,-0.1459,-0.1514,-0.1876,-0.2068,-0.2171,-0.2444,-0.2568,-0.2415,-0.2666,-0.2702,-0.2728,-0.2573,-0.248,-0.249,-0.2498,-0.2369,-0.2367,-0.2365,0,0,-0.0973,-0.1009,-0.1052,-0.1092,-0.1143,-0.1214,-0.1254,-0.1287,-0.1416,-0.1497,-0.1686,-0.1859,-0.2065,-0.2128,-0.2326,-0.2496,-0.2336,-0.2616,-0.2652,-0.2682,-0.2549,-0.2463,-0.2475,-0.2358,-0.2358,-0.2357,0,0,-0.0952,-0.0992,-0.1033,-0.1081,-0.1123,-0.1155,-0.1217,-0.1263,-0.1448,-0.151,-0.1605,-0.1649,-0.1986,-0.194,-0.1842,-0.2228,-0.2068,-0.2093,-0.2258,-0.2302,-0.2337,-0.2142,-0.1757,0,0,0,0,0,-0.0947,-0.0978,-0.1016,-0.1027,-0.1111,-0.1141,-0.1156,-0.1207,-0.1276,-0.1323,-0.1514,-0.1482,-0.1906,-0.182,-0.1858,-0.2027,-0.2265,-0.2282,-0.2297,-0.2563,-0.261,-0.2649,0,0,0,0,0,0,-0.0951,-0.0965,-0.1013,-0.104,-0.1058,-0.1141,-0.1155,-0.1172,-0.127,-0.1281,-0.1456,-0.1483,-0.1519,-0.18,-0.1834,-0.1997,-0.1745,-0.2272,-0.2285,-0.2298,-0.2579,-0.2617,-0.265,0,0,0,0,0,-0.0954,-0.0965,-0.109,-0.1042,-0.1057,-0.1119,-0.1156,-0.117,-0.1289,-0.1352,-0.1384,-0.1329,-0.1515,-0.1555,-0.1821,-0.1982,-0.1722,-0.1735,-0.2281,-0.2292,-0.2301,-0.2598,0,0,0,0,0,0,-0.0956,-0.1006,-0.1095,-0.1101,-0.1036,-0.1119,-0.1136,-0.1169,-0.1361,-0.1385,-0.122,-0.1225,-0.1514,-0.1545,-0.1574,-0.1979,-0.1703,-0.1716,-0.1724,-0.2289,-0.2298,-0.2305,0,0,0,0,0,0,-0.0998,-0.1011,-0.1099,-0.109,-0.1096,-0.1118,-0.1133,-0.1264,-0.1368,-0.1225,-0.123,-0.122,-0.1497,-0.1538,-0.1561,-0.1762,-0.1688,-0.17,-0.1709,-0.1714,-0.2296,-0.2303,0,0,0,0,0,0,-0.1004,-0.1016,-0.109,-0.1095,-0.1101,-0.1185,-0.1242,-0.1355,-0.1269,-0.1221,-0.1269,-0.127,-0.149,-0.1515,-0.1552,-0.1741,-0.1756,-0.1688,-0.1697,-0.1703,-0.1707,0,0,0,0,0,0,0,-0.1009,-0.0924,-0.104,-0.1099,-0.1104,-0.1152,-0.1155,-0.1159,-0.1269,-0.1269,-0.1269,-0.1269,-0.1617,-0.1631,-0.1645,-0.1725,0,0,-0.1687,-0.1693,0,0,0,0,0,0,0,0,-0.092,-0.0923,-0.104,-0.104,-0.104,-0.1152,-0.1155,-0.1158,-0.1269,-0.1269,-0.1269,-0.1269,-0.1621,-0.1632,-0.1643,0,0,0,0,0,0,0,0,0,0,0,0,0,0,0,-0.104,-0.104,0,-0.1153,-0.1155,-0.1157,-0.1269,-0.1269,-0.1269,-0.1269,-0.1624,-0.1633,-0.1642,0,0,0,0,0,0,0,0,0,0,0,0,0,0,0,0,0,0,0,0,0,0,0,0,0,0,0,0,0,0,0,0,0,0,0,0,0,0,0,0,0,0,0,0,0,0,0,0,0,0,0,0,0,0,0,0,0,0,0,0,0,0,0,0,0,0,0,0,0]}],[{"header":{"parameterUnit":"kt","parameterCategory":2,"dx":1,"dy":1,"la1":30.253999710083008,"la2":30.299108505249023,"lo1":-89.0895004272461,"lo2":-89.04439544677734,"nx":28,"ny":28,"refTime":"2022-10-17T21:00:00:Z","depth":"4","parameterNumber":3,"parameterNumberName":"V-component_of_CURRENTS"},"data":[0.072,0.0662,0.0561,0.0229,0.0056,-0.0072,-0.008,-0.0049,-0.0082,-0.0078,0.0103,0.0154,0.0486,0.0339,0.0781,0.0846,0.0971,0.129,0.1292,0.1516,0.1524,0.1531,0.157,0,0,0,0,0,0.0753,0.0734,0.0548,0.0345,0.0213,0.0113,0.0059,0.0115,0.0092,0.0023,0.0047,0.0181,0.0469,0.0605,0.0811,0.0902,0.1252,0.1142,0.1324,0.1521,0.153,0.1565,0,0,0,0,0,0,0.0811,0.0775,0.0752,0.0523,0.0364,0.0253,0.0267,0.0205,0.0162,0.0123,0.0083,0.0301,0.0428,0.0729,0.091,0.1127,0.1195,0.1244,0.1267,0.1278,0.1262,0.1211,0.0987,0,0,0,0,0,0.082,0.092,0.0862,0.0636,0.056,0.0427,0.0377,0.0318,0.033,0.0355,0.0295,0.0447,0.057,0.0841,0.1062,0.1254,0.1504,0.151,0.1517,0.1634,0.1625,0.1608,0.1616,0.1563,0.1564,0.1565,0.1565,0,0.0904,0.0904,0.0817,0.0698,0.0655,0.0614,0.0578,0.0608,0.058,0.0543,0.0493,0.0626,0.0759,0.0926,0.1193,0.1449,0.1517,0.1531,0.1655,0.1639,0.162,0.1626,0.1631,0.1572,0.1572,0.1571,0.1571,0,0.0943,0.0883,0.0796,0.072,0.0666,0.066,0.0582,0.0618,0.0713,0.0678,0.0737,0.0881,0.1014,0.1233,0.1401,0.1501,0.1607,0.1635,0.1692,0.167,0.1642,0.1645,0.1584,0.1581,0.1579,0.1577,0.1576,0,0.0871,0.0833,0.0746,0.0712,0.063,0.0633,0.0665,0.0701,0.0786,0.0773,0.1033,0.1053,0.1337,0.1411,0.1583,0.1664,0.1668,0.177,0.1743,0.1837,0.1839,0.1623,0.16,0.1831,0.1831,0.1832,0.1833,0,0.0893,0.0736,0.069,0.064,0.0514,0.0579,0.0573,0.0695,0.0699,0.0936,0.1003,0.125,0.1356,0.1489,0.1669,0.1712,0.1748,0.1774,0.1769,0.1763,0.1618,0.1594,0.1833,0.1834,0.1834,0.1834,0.1834,0,0.081,0.0692,0.0644,0.052,0.0526,0.0512,0.0581,0.0583,0.0765,0.0914,0.1159,0.1305,0.1505,0.1613,0.1754,0.1771,0.1843,0.1885,0.1881,0.1609,0.1561,0.1599,0.1808,0.1808,0.1809,0.1809,0.1809,0,0.0795,0.0686,0.0626,0.0552,0.0515,0.0513,0.0541,0.0601,0.0743,0.0892,0.1144,0.1334,0.1511,0.1668,0.1767,0.1826,0.1887,0.1909,0.1633,0.1621,0.1624,0.1792,0.1904,0.1814,0.1814,0.1813,0.1813,0,0.0811,0.0678,0.0694,0.0642,0.0559,0.0516,0.0567,0.0615,0.0699,0.0909,0.1061,0.137,0.1529,0.1532,0.1644,0.1689,0.1886,0.1651,0.164,0.1686,0.186,0.1803,0.1794,0.1902,0.1903,0.1903,0.1816,0,0.0731,0.0696,0.0687,0.0614,0.0576,0.0535,0.0542,0.0607,0.0751,0.0814,0.1076,0.1208,0.1322,0.1449,0.1477,0.1616,0.1536,0.1481,0.1315,0.1455,0.1389,0.1389,0.1263,0.1254,0.1247,0.1241,0,0,0.0784,0.0718,0.0696,0.0639,0.0608,0.0601,0.0576,0.058,0.0609,0.0704,0.0803,0.1038,0.1097,0.1217,0.134,0.131,0.1249,0.1237,0.1363,0.1379,0.1392,0.1342,0.135,0.1228,0.1225,0.1223,0.122,0,0.0744,0.074,0.0721,0.0663,0.0613,0.0569,0.059,0.0587,0.0646,0.0718,0.0806,0.0993,0.1009,0.1062,0.1074,0.1214,0.111,0.1234,0.1311,0.1306,0.1332,0.1352,0.1311,0.1323,0.1203,0.1204,0.1204,0,0.0756,0.0693,0.0696,0.0609,0.0598,0.0556,0.0583,0.0562,0.0557,0.0574,0.0684,0.08,0.0749,0.0858,0.0894,0.0779,0.0898,0.0875,0.0904,0.0795,0.0773,0.0803,0.0829,0.0507,0.0507,0.0507,0,0,0.0727,0.0691,0.0637,0.0605,0.0614,0.0577,0.0555,0.0547,0.0554,0.0576,0.0631,0.0652,0.0716,0.0724,0.0728,0.0743,0.0609,0.0815,0.0847,0.0876,0.0787,0.077,0.0797,0.0507,0.0507,0.0508,0,0,0.0722,0.0666,0.0677,0.0647,0.0588,0.0505,0.0509,0.0515,0.0543,0.0606,0.061,0.0618,0.0762,0.0618,0.0627,0.0725,0.0552,0.0549,0.0918,0.0955,0.0986,0.0909,0.0585,0,0,0,0,0,0.0682,0.0663,0.0672,0.0663,0.0582,0.0488,0.0472,0.048,0.0566,0.0548,0.062,0.06,0.0618,0.0627,0.0615,0.0782,0.051,0.0509,0.0509,0.0986,0.1027,0.1062,0,0,0,0,0,0,0.0678,0.0667,0.0672,0.0593,0.0574,0.0489,0.0544,0.0541,0.0568,0.0582,0.0588,0.0595,0.0571,0.0628,0.0619,0.0782,0.0587,0.051,0.0509,0.0509,0.1,0.1034,0.1062,0,0,0,0,0,0.0674,0.0665,0.0557,0.0591,0.0575,0.0562,0.0549,0.0549,0.0587,0.0544,0.0554,0.0612,0.0566,0.0566,0.0623,0.079,0.0593,0.059,0.0509,0.0509,0.0509,0.1016,0,0,0,0,0,0,0.0672,0.0636,0.0551,0.0543,0.0654,0.0568,0.0564,0.0554,0.0551,0.0556,0.0561,0.057,0.0561,0.0562,0.0561,0.0802,0.0598,0.0595,0.0593,0.0509,0.0509,0.0509,0,0,0,0,0,0,0.0641,0.063,0.0547,0.0626,0.0627,0.0574,0.057,0.0518,0.0554,0.0568,0.0575,0.0566,0.061,0.0558,0.0558,0.0469,0.0602,0.0599,0.0597,0.0595,0.0509,0.0509,0,0,0,0,0,0,0.0635,0.0625,0.0627,0.0628,0.0629,0.0535,0.053,0.0476,0.0541,0.057,0.0557,0.0564,0.0607,0.0605,0.0555,0.0466,0.0468,0.0602,0.06,0.0598,0.0597,0,0,0,0,0,0,0,0.063,0.0715,0.0606,0.063,0.0631,0.0471,0.0468,0.0465,0.0542,0.0549,0.0555,0.0561,0.062,0.0617,0.0613,0.0463,0,0,0.0602,0.0601,0,0,0,0,0,0,0,0,0.0717,0.0716,0.0606,0.0604,0.0603,0.0471,0.0468,0.0466,0.0543,0.0549,0.0554,0.0559,0.0619,0.0616,0.0613,0,0,0,0,0,0,0,0,0,0,0,0,0,0,0,0.0605,0.0604,0,0.047,0.0468,0.0466,0.0544,0.0548,0.0553,0.0557,0.0618,0.0616,0.0614,0,0,0,0,0,0,0,0,0,0,0,0,0,0,0,0,0,0,0,0,0,0,0,0,0,0,0,0,0,0,0,0,0,0,0,0,0,0,0,0,0,0,0,0,0,0,0,0,0,0,0,0,0,0,0,0,0,0,0,0,0,0,0,0,0,0,0,0,0]}]]]